Home   Weather   Yonkers   Past weeks

Flag for USA Past Weather in Yonkers, New York, USA — Yesterday and Last 2 Weeks

Now
50 °F

Clear.


Feels Like: 48 °F
Forecast: 52 / 70 °F
Wind: 6 mph from North

Location: Teterboro Airport

Current Time: Sep 26, 2016 at 6:41:44 AM

Latest Report: Sep 26, 2016 at 5:51 AM


Visibility: 10 mi

Pressure: 30.18 "Hg

Humidity: 83%

Dew Point: 45 °F

Location of YonkersLocation

Past Weather in Yonkers — Graph

°F

Yonkers Temperature Yesterday

Maximum temperature yesterday: 70 °F (at 1:51 PM)
Minimum temperature yesterday: 51 °F (at 5:51 AM)
Average temperature yesterday: 60 °F

High & Low Weather Summary for the Past Weeks

 TemperatureHumidityPressure
High91 °F (Sep 14, 2:51 PM)91% (Sep 19, 5:57 AM)30.33 "Hg (Sep 19, 5:57 AM)
Low50 °F (Sep 26, 3:51 AM)9% (Sep 14, 12:51 PM)29.85 "Hg (Sep 11, 4:51 AM)
Average71 °F60%30.12 "Hg
* Reported Sep 11 4:51 AM — Sep 26 4:51 AM, Yonkers, Weather by CustomWeather, © 2016

Note: Actual official high and low records may vary slightly from our data, if they occured in-between our weather recording intervals... More about our weather records

Advertising

Yonkers Weather History for the Previous 24 Hours

Scroll right to see more
 ConditionsComfort  
Time TempWeatherWind HumidityBarometerVisibility
4:51 AM
Mon, Sep 26
50 °FClear.5 mph80%30.17 "Hg10 mi
3:51 AM50 °FClear.3 mph77%30.18 "Hg10 mi
2:51 AM52 °FClear.6 mph75%30.18 "Hg10 mi
1:51 AM51 °FClear.No wind74%30.19 "Hg10 mi
12:51 AM52 °FClear.5 mph72%30.19 "Hg10 mi
11:51 PM
Sun, Sep 25
54 °FClear.3 mph67%30.19 "Hg10 mi
10:51 PM57 °FClear.5 mph62%30.18 "Hg10 mi
9:51 PM59 °FClear.No wind51%30.17 "Hg10 mi
8:51 PM62 °FClear.No wind43%30.15 "Hg10 mi
7:51 PM62 °FClear.No wind44%30.14 "Hg10 mi
6:51 PM67 °FClear.5 mph30%30.13 "Hg10 mi
5:51 PM69 °FSunny.7 mph24%30.11 "Hg10 mi
4:51 PM70 °FSunny.6 mph21%30.11 "Hg10 mi
3:51 PM70 °FSunny.12 mph23%30.12 "Hg10 mi
2:51 PM70 °FSunny.10 mph25%30.13 "Hg10 mi
1:51 PM70 °FSunny.9 mph23%30.15 "Hg10 mi
12:51 PM67 °FSunny.No wind35%30.17 "Hg10 mi
11:51 AM65 °FSunny.6 mph36%30.19 "Hg10 mi
10:51 AM62 °FSunny.7 mph46%30.20 "Hg10 mi
9:51 AM60 °FSunny.7 mph47%30.19 "Hg10 mi
8:51 AM57 °FSunny.6 mph51%30.20 "Hg10 mi
7:51 AM54 °FSunny.5 mph59%30.19 "Hg10 mi
6:51 AM52 °FSunny.No wind64%30.19 "Hg10 mi
Weather by CustomWeather, © 2016

See weather overviewHow to use our weather pages